TimePDT,TemperatureF,Dew PointF,Humidity,Sea Level PressureIn,VisibilityMPH,Wind Direction,Wind SpeedMPH,Gust SpeedMPH,PrecipitationIn,Events,Conditions,WindDirDegrees,DateUTC
12:53 AM,71.1,55.0,57,29.85,10.0,Calm,Calm,-,N/A,,Scattered Clouds,0,2013-09-03 07:53:00
1:53 AM,70.0,55.0,59,29.85,10.0,West,3.5,-,N/A,,Clear,280,2013-09-03 08:53:00
2:53 AM,70.0,55.0,59,29.85,10.0,NW,8.1,-,N/A,,Mostly Cloudy,320,2013-09-03 09:53:00
3:53 AM,66.9,55.0,66,29.86,10.0,WNW,4.6,-,N/A,,Mostly Cloudy,290,2013-09-03 10:53:00
4:53 AM,64.9,54.0,68,29.86,10.0,West,5.8,-,N/A,,Clear,270,2013-09-03 11:53:00
5:53 AM,64.0,55.0,73,29.86,10.0,West,6.9,-,N/A,,Partly Cloudy,260,2013-09-03 12:53:00
6:53 AM,64.9,55.0,70,29.88,10.0,West,8.1,-,N/A,,Clear,260,2013-09-03 13:53:00
7:53 AM,69.1,55.9,63,29.89,10.0,West,6.9,-,N/A,,Clear,260,2013-09-03 14:53:00
8:53 AM,73.0,57.0,57,29.90,10.0,West,4.6,-,N/A,,Clear,270,2013-09-03 15:53:00
9:53 AM,78.1,55.0,45,29.90,10.0,NW,4.6,-,N/A,,Clear,310,2013-09-03 16:53:00
10:53 AM,80.1,55.9,43,29.89,10.0,Variable,3.5,-,N/A,,Clear,0,2013-09-03 17:53:00
11:53 AM,82.9,55.9,39,29.88,10.0,Calm,Calm,-,N/A,,Clear,0,2013-09-03 18:53:00
12:53 PM,84.9,55.9,37,29.87,10.0,ESE,8.1,-,N/A,,Clear,110,2013-09-03 19:53:00
1:53 PM,87.1,53.1,31,29.87,10.0,SE,6.9,-,N/A,,Clear,140,2013-09-03 20:53:00
2:53 PM,88.0,53.1,30,29.86,10.0,SSE,6.9,-,N/A,,Scattered Clouds,160,2013-09-03 21:53:00
3:53 PM,89.1,52.0,28,29.86,10.0,Calm,Calm,-,N/A,,Scattered Clouds,0,2013-09-03 22:53:00
4:53 PM,89.1,50.0,26,29.85,10.0,South,6.9,-,N/A,,Scattered Clouds,190,2013-09-03 23:53:00
5:53 PM,89.1,50.0,26,29.85,10.0,Calm,Calm,-,N/A,,Partly Cloudy,0,2013-09-04 00:53:00
6:53 PM,84.9,54.0,34,29.86,10.0,North,4.6,-,N/A,,Partly Cloudy,360,2013-09-04 01:53:00
7:53 PM,78.1,55.0,45,29.88,10.0,NNW,3.5,-,N/A,,Clear,330,2013-09-04 02:53:00
8:53 PM,73.9,54.0,50,29.91,10.0,West,6.9,-,N/A,,Clear,280,2013-09-04 03:53:00
9:53 PM,73.9,54.0,50,29.91,10.0,WNW,9.2,-,N/A,,Clear,300,2013-09-04 04:53:00
10:53 PM,70.0,53.1,55,29.91,10.0,West,4.6,-,N/A,,Clear,270,2013-09-04 05:53:00
11:53 PM,71.1,53.1,53,29.92,10.0,Variable,3.5,-,N/A,,Clear,0,2013-09-04 06:53:00